Wetbulb
56.48 56.36 56.67 56.28 55.33 54.68 54.49 54.52 54.45 54.49 54.63 54.57 54.61 55.30 55.43 55.40 55.27 51.90 46.43 51.22 53.52 59.93 60.78 51.11 51.59 52.08 50.01 47.89 48.60 47.49 38.75 37.35 41.06 43.43 45.53 50.42 48.72 51.80 57.22 55.82 56.60 56.95 57.16 58.88 60.35
56.28 56.55 56.08 55.86 55.47 54.84 54.16 54.27 54.22 54.20 54.23 54.20 54.89 55.25 55.03 55.29 50.66 48.15 55.31 61.36 63.41 64.33 51.44 48.98 48.20 50.65 46.50 46.14 46.34 43.35 39.61 41.34 46.95 48.16 46.72 49.38 48.31 49.23 51.17 52.68 53.48 55.21 57.97 58.75 58.53
55.49 55.94 56.15 56.02 55.93 55.04 54.63 54.46 54.05 54.07 54.11 55.15 55.19 55.06 55.00 53.95 47.94 49.76 64.37 61.76 64.62 61.25 51.05 49.25 49.60 48.79 44.40 45.49 44.82 43.46 41.84 46.78 48.53 49.77 49.20 47.74 48.31 49.85 49.04 47.78 51.70 53.91 55.09 55.35 56.04
54.75 55.00 55.22 55.66 55.87 55.78 54.92 54.47 54.60 54.45 54.30 54.43 54.72 55.02 55.43 51.21 44.46 55.81 66.38 63.79 65.03 54.01 49.77 46.92 46.68 43.40 42.28 41.91 45.85 42.44 46.79 48.09 48.99 50.62 48.66 47.46 50.28 49.34 48.62 48.98 52.52 52.71 53.73 53.71 52.81
53.98 54.29 54.43 54.59 55.35 55.54 55.84 54.55 54.37 54.49 54.31 54.17 54.00 54.54 51.90 47.22 47.66 60.39 65.29 64.40 56.76 51.90 48.51 46.57 47.51 45.85 42.12 44.08 45.03 43.87 46.25 48.82 49.87 49.03 47.28 49.88 48.67 48.42 47.79 51.72 53.12 52.81 53.12 51.91 51.74
54.44 53.82 53.81 53.94 54.39 55.13 55.56 55.71 54.16 54.60 53.79 53.82 54.26 55.10 49.38 42.23 57.43 60.66 56.94 54.41 52.72 50.69 49.42 48.65 48.31 48.32 45.44 44.88 43.13 46.29 47.18 47.74 48.38 47.79 47.35 46.66 47.38 48.42 49.68 51.79 51.49 51.99 50.87 50.57 51.17
54.55 54.43 54.19 54.02 54.00 54.52 54.94 55.00 54.12 54.15 54.69 54.63 54.82 54.36 48.57 47.06 57.11 56.75 55.38 51.94 52.74 53.36 53.42 53.90 52.30 47.90 48.14 44.05 47.02 46.92 43.50 45.80 46.97 46.84 46.33 48.00 44.57 45.35 49.03 50.72 49.93 50.83 51.79 51.87 51.97
54.57 54.45 54.28 54.11 53.73 54.34 54.11 54.30 54.85 54.80 55.07 55.18 55.20 52.42 46.29 58.21 56.39 54.73 55.59 55.35 56.27 54.30 55.90 54.30 51.94 49.97 47.11 48.06 47.44 44.23 41.99 36.83 43.82 47.12 47.90 45.85 40.28 47.71 50.29 49.18 48.99 50.36 50.97 52.24 52.41
54.93 54.60 54.48 53.61 53.29 53.57 53.71 53.38 55.30 55.07 55.36 55.18 52.13 49.15 48.07 58.13 53.21 53.35 55.10 55.09 56.28 55.71 53.00 56.75 52.11 48.02 48.26 42.36 39.42 40.87 36.37 39.38 42.72 47.69 47.33 46.01 41.68 47.51 49.55 49.20 49.56 49.51 50.04 50.56 50.41
55.20 54.77 54.60 54.20 53.38 53.36 52.96 53.87 55.90 54.71 54.39 55.41 54.92 48.15 52.61 52.98 55.33 54.39 51.39 56.72 53.65 51.42 51.44 49.88 45.97 42.30 41.17 37.90 32.75 37.33 38.38 41.00 41.72 45.35 45.73 43.83 43.20 46.47 47.89 49.46 49.05 49.36 50.11 50.72 51.24
55.48 54.95 54.64 54.40 54.03 52.80 50.73 49.96 51.51 49.73 52.73 49.51 50.84 50.20 53.59 57.51 55.45 51.18 51.73 54.42 54.06 49.45 42.61 46.03 40.02 37.22 40.79 43.03 43.83 43.50 42.04 40.60 43.31 46.45 44.42 41.57 42.92 45.16 47.51 46.42 47.06 47.97 49.02 49.82 50.88
55.15 55.17 54.81 54.32 53.65 52.68 49.63 46.34 51.97 51.96 47.40 54.24 54.28 53.65 55.95 57.18 51.76 51.69 51.40 49.57 49.24 43.33 45.60 42.51 38.97 45.15 47.70 46.94 45.29 43.89 41.40 40.80 43.98 46.66 43.90 42.68 42.57 45.58 47.01 46.63 47.46 48.01 48.48 49.48 50.95
54.69 54.53 54.42 53.96 53.09 49.76 47.29 49.62 54.81 54.78 45.51 49.70 53.95 53.26 52.90 54.12 50.23 50.36 48.84 48.43 47.35 44.11 43.73 40.37 44.02 48.75 47.55 45.47 44.30 42.92 41.18 41.67 41.77 45.19 44.87 42.60 40.49 42.91 47.05 47.78 48.83 49.37 49.50 50.37 50.63
54.37 54.14 54.10 53.32 48.92 51.17 50.61 54.75 53.68 54.58 40.26 46.84 50.27 52.65 53.85 52.96 48.72 54.22 53.64 49.54 47.05 43.88 44.78 43.53 47.53 47.07 46.05 44.97 44.59 39.16 45.22 44.68 44.37 41.01 34.25 42.09 33.66 40.30 44.68 46.28 48.24 49.28 48.89 49.49 51.04
54.06 54.32 53.77 52.72 46.67 48.14 55.02 56.92 55.92 51.96 31.51 49.38 49.24 54.74 52.90 49.19 49.97 50.00 54.44 50.41 44.67 45.00 44.63 42.83 44.66 43.57 42.86 43.99 45.78 42.59 46.61 43.78 43.40 39.05 36.00 38.79 33.28 37.59 44.05 43.79 46.06 48.03 50.05 49.77 50.30
53.96 53.90 53.32 51.30 48.43 50.34 54.50 54.94 53.13 40.35 33.96 46.56 50.06 48.23 47.02 48.90 49.51 50.01 50.56 52.00 50.96 45.86 45.63 44.57 48.75 45.75 44.84 47.02 46.85 47.70 44.21 42.80 40.66 37.02 31.42 36.50 35.95 35.65 40.96 43.99 46.57 50.04 51.47 52.37 52.24
53.86 53.61 51.65 51.14 50.03 56.32 56.73 51.53 37.90 35.47 50.50 46.30 45.85 47.55 46.52 46.03 46.97 47.42 46.52 44.38 41.02 37.76 38.88 44.14 45.07 47.33 48.41 43.32 45.44 43.20 37.42 29.97 28.60 29.86 30.39 40.46 38.19 39.31 44.56 50.46 50.74 49.61 50.93 52.07 51.25
52.77 51.41 50.86 51.55 53.83 54.53 52.47 44.07 34.14 46.13 46.34 51.07 49.01 47.60 44.30 47.11 46.23 46.96 45.36 42.08 45.40 43.29 39.62 37.83 36.93 45.72 48.99 45.14 41.74 41.69 39.85 32.60 26.05 26.31 31.66 40.85 34.37 40.37 49.66 51.46 52.17 52.84 50.97 51.98 50.75
50.90 51.39 53.20 55.41 55.52 54.55 47.58 37.49 42.36 46.18 48.03 46.80 47.40 44.03 44.24 47.93 47.83 46.50 44.44 43.75 47.22 47.51 40.50 38.81 40.03 48.89 49.88 50.20 47.66 42.84 39.74 43.39 35.42 36.04 30.75 35.14 40.90 46.33 49.77 50.33 51.05 51.73 51.91 50.20 49.01
47.13 48.04 53.88 59.04 57.82 53.03 44.54 41.76 47.03 49.44 48.96 48.10 42.05 45.85 42.34 45.11 45.04 44.04 44.26 48.46 47.00 49.55 47.79 44.04 37.26 45.78 47.54 48.55 47.98 44.12 45.82 37.83 36.78 27.29 25.06 33.55 35.82 37.70 44.11 46.69 49.26 49.89 49.80 49.59 48.92
46.94 48.97 55.47 58.31 56.70 49.15 41.24 45.04 48.21 50.29 49.75 46.57 44.70 44.02 44.66 44.25 44.14 42.74 44.24 47.03 48.24 46.78 46.94 43.13 39.74 41.30 44.60 42.17 40.10 41.17 40.78 40.20 38.28 36.66 28.24 24.82 32.05 44.05 46.12 47.36 46.76 47.72 49.94 50.12 50.47
46.98 46.46 56.50 57.89 46.34 47.88 45.03 48.04 48.36 48.74 50.68 48.81 48.72 46.57 44.17 44.21 42.43 42.16 43.12 45.00 49.19 48.14 42.03 42.79 39.72 35.48 39.25 44.79 46.57 42.97 40.16 41.80 36.07 34.01 34.75 30.54 33.96 47.10 47.42 46.44 46.64 46.61 49.11 50.17 50.07
43.28 48.49 57.31 55.71 41.73 44.24 49.02 47.57 49.32 48.07 47.69 47.39 46.29 47.09 46.43 42.20 37.57 43.22 43.66 47.87 47.76 46.64 43.75 42.93 36.72 30.19 33.69 38.71 43.73 40.85 42.19 41.07 41.98 40.21 36.23 33.95 34.28 46.54 47.21 47.61 46.21 45.68 48.33 50.85 51.56
44.66 44.53 50.39 51.19 49.62 46.00 46.17 44.82 45.26 49.60 46.95 47.77 46.07 46.60 43.01 40.63 42.49 39.96 42.50 46.75 47.66 47.15 49.96 46.40 37.97 34.82 29.07 34.83 38.83 36.93 40.24 41.45 39.65 35.24 36.60 36.26 37.48 42.01 43.48 44.43 45.85 46.47 47.50 49.28 49.50
46.65 46.45 47.98 42.34 45.20 46.00 45.56 44.90 43.76 43.89 47.17 46.63 44.17 44.85 41.59 35.60 38.40 38.32 42.47 42.75 46.73 48.60 45.08 40.91 33.68 36.35 37.32 39.14 39.01 37.66 37.71 38.17 36.41 37.29 34.02 37.17 37.95 41.31 43.07 43.33 44.57 45.77 47.20 48.32 49.24
45.25 44.36 46.11 43.70 46.63 45.01 43.40 42.40 43.52 44.46 44.08 43.29 41.33 43.70 41.87 36.38 37.60 35.61 38.12 38.51 38.03 42.74 41.62 43.80 34.54 35.78 34.47 37.92 38.35 36.36 38.35 38.93 39.12 38.99 38.38 38.82 38.07 44.06 46.09 47.23 45.70 44.84 46.62 46.67 47.05
49.58 49.92 45.38 43.83 43.55 42.88 42.61 44.52 43.75 44.07 45.42 45.46 43.20 40.86 39.86 41.16 42.99 42.19 41.69 41.61 40.63 37.73 37.62 39.01 37.66 35.36 30.71 36.31 35.53 29.65 35.99 38.07 39.72 41.49 40.42 36.36 39.71 45.61 43.76 45.12 43.55 43.42 45.11 46.12 46.58
MSLP
1016.86 1016.38 1015.95 1015.59 1015.39 1015.22 1015.06 1014.86 1014.67 1014.59 1014.50 1014.50 1014.42 1014.24 1014.17 1014.04 1013.66 1013.17 1012.10 1009.34 1009.14 1008.90 1008.85 1008.76 1008.71 1008.72 1008.97 1008.98 1008.57 1008.43 1009.10 1008.72 1007.59 1006.50 1005.00 1003.34 1003.39 1002.44 1000.99 1001.33 1001.82 1002.46 1003.27 1003.51 1003.69
1016.88 1016.39 1015.92 1015.51 1015.11 1014.90 1014.75 1014.60 1014.46 1014.35 1014.35 1014.20 1014.07 1014.04 1013.96 1013.71 1013.33 1011.65 1008.48 1008.26 1008.22 1008.19 1008.94 1008.84 1008.56 1008.41 1008.79 1008.45 1008.42 1008.33 1008.22 1007.78 1006.73 1005.75 1005.00 1003.85 1003.48 1003.20 1002.52 1002.01 1002.32 1002.73 1002.59 1003.24 1003.82
1016.89 1016.39 1015.90 1015.43 1015.05 1014.69 1014.48 1014.32 1014.20 1014.07 1013.90 1013.84 1013.86 1013.77 1013.78 1013.81 1012.50 1008.12 1005.92 1007.12 1007.61 1007.88 1008.18 1008.34 1008.22 1008.17 1008.42 1008.24 1007.98 1007.52 1007.42 1006.89 1005.89 1005.35 1005.00 1004.08 1003.49 1003.22 1003.27 1003.06 1002.94 1003.02 1003.08 1003.14 1003.62
1016.60 1016.36 1015.86 1015.38 1014.93 1014.63 1014.31 1014.14 1013.92 1013.76 1013.70 1013.55 1013.52 1013.57 1013.48 1013.44 1010.46 1006.52 1005.64 1006.24 1007.40 1007.76 1008.19 1008.18 1008.13 1008.22 1007.98 1007.95 1007.24 1007.26 1006.62 1006.15 1005.34 1004.84 1004.43 1004.09 1003.61 1003.39 1003.35 1003.42 1003.18 1003.26 1003.40 1003.57 1003.95
1016.40 1016.12 1015.82 1015.34 1014.85 1014.44 1014.14 1013.87 1013.72 1013.54 1013.48 1013.46 1013.41 1013.28 1013.05 1012.18 1008.67 1006.37 1006.32 1006.72 1007.45 1007.60 1007.66 1007.73 1007.65 1007.31 1007.29 1007.10 1006.78 1006.48 1006.08 1005.56 1004.92 1004.42 1004.24 1003.88 1003.79 1003.58 1003.56 1003.24 1003.05 1003.12 1003.44 1003.87 1004.24
1016.39 1015.89 1015.60 1015.24 1014.82 1014.34 1013.91 1013.59 1013.40 1013.25 1013.17 1013.22 1013.16 1013.18 1012.84 1010.32 1005.75 1005.88 1006.32 1006.78 1006.82 1007.20 1007.09 1007.06 1006.66 1006.17 1006.34 1006.26 1006.23 1005.54 1005.31 1004.82 1004.40 1004.13 1003.90 1003.95 1003.82 1003.64 1003.57 1003.38 1003.32 1003.36 1003.68 1004.01 1004.34
1016.40 1015.78 1015.32 1015.01 1014.62 1014.19 1013.70 1013.22 1012.92 1012.82 1012.81 1012.84 1012.89 1012.71 1011.41 1007.96 1005.44 1005.60 1005.92 1006.28 1006.18 1006.40 1006.32 1005.86 1005.60 1005.94 1005.79 1005.67 1005.18 1005.02 1004.91 1004.55 1004.18 1003.94 1003.96 1003.99 1003.70 1003.70 1003.56 1003.49 1003.38 1003.46 1003.70 1003.96 1004.35
1016.33 1015.82 1015.16 1014.58 1014.31 1013.92 1013.43 1012.88 1012.39 1012.22 1012.41 1012.53 1012.58 1012.16 1009.66 1005.30 1005.06 1005.80 1005.36 1005.72 1005.62 1005.67 1005.46 1005.10 1004.80 1005.21 1005.54 1005.41 1005.32 1005.34 1004.89 1004.68 1004.09 1003.85 1003.61 1003.91 1003.62 1003.42 1003.09 1003.18 1003.32 1003.27 1003.49 1003.81 1004.11
1015.99 1015.63 1015.11 1014.59 1013.87 1013.52 1013.15 1012.53 1012.07 1011.90 1012.07 1012.27 1012.28 1011.41 1007.75 1004.49 1004.52 1004.13 1004.47 1004.84 1004.91 1005.00 1004.94 1004.71 1005.04 1005.49 1005.88 1006.33 1006.35 1005.59 1005.60 1005.06 1004.26 1003.31 1003.10 1003.31 1003.16 1003.04 1002.62 1002.92 1002.72 1002.92 1003.40 1003.60 1003.90
1015.80 1015.22 1014.86 1014.41 1013.97 1013.29 1012.75 1011.96 1011.63 1011.79 1011.80 1011.60 1010.91 1010.36 1006.92 1004.26 1003.38 1003.58 1003.72 1004.02 1004.33 1004.86 1005.13 1005.39 1005.96 1006.29 1006.42 1006.77 1006.61 1006.18 1005.52 1004.71 1003.95 1002.70 1002.41 1002.49 1002.66 1002.64 1002.33 1002.68 1002.68 1003.03 1003.21 1003.62 1003.86
1015.48 1015.02 1014.35 1014.05 1013.65 1013.44 1012.73 1011.82 1011.81 1011.27 1010.45 1008.73 1007.61 1006.38 1004.73 1003.50 1002.89 1003.54 1003.64 1003.82 1004.11 1004.83 1005.69 1005.86 1006.46 1006.45 1006.26 1006.02 1005.81 1005.43 1005.02 1004.55 1003.66 1002.66 1002.59 1002.23 1002.34 1002.32 1002.26 1002.50 1002.86 1003.00 1003.18 1003.14 1003.33
1015.04 1014.50 1014.08 1013.50 1013.18 1013.09 1013.18 1011.66 1008.08 1006.80 1007.12 1006.41 1005.82 1005.14 1004.36 1004.00 1003.28 1003.11 1003.49 1004.20 1004.55 1005.08 1005.60 1006.08 1005.88 1005.66 1005.34 1005.01 1004.92 1004.78 1004.58 1004.06 1003.36 1002.76 1002.83 1002.96 1002.91 1002.54 1002.22 1002.09 1002.34 1002.74 1003.09 1003.01 1003.20
1014.80 1014.20 1013.47 1012.90 1012.27 1012.11 1011.09 1008.80 1006.94 1006.49 1006.31 1004.42 1003.65 1003.91 1003.84 1003.79 1003.22 1002.93 1003.34 1003.98 1004.55 1005.17 1005.36 1005.61 1005.04 1004.74 1004.62 1004.42 1004.36 1004.21 1004.24 1004.03 1003.70 1003.29 1003.17 1003.49 1003.24 1002.78 1002.11 1001.94 1001.93 1001.90 1001.89 1002.27 1002.42
1014.65 1014.04 1013.25 1012.36 1011.55 1010.58 1008.97 1006.32 1006.74 1006.98 1006.37 1003.39 1002.02 1002.06 1002.78 1003.24 1003.10 1002.78 1003.12 1003.76 1004.34 1004.77 1005.07 1004.97 1004.51 1004.18 1003.97 1003.79 1003.85 1003.98 1003.78 1003.74 1003.84 1004.32 1004.65 1004.16 1004.06 1003.62 1002.55 1002.04 1001.64 1001.34 1001.44 1001.57 1001.84
1014.13 1013.75 1013.06 1012.96 1012.09 1010.44 1006.95 1006.18 1005.82 1007.23 1005.43 1001.85 1001.50 1000.90 1001.51 1002.82 1002.48 1002.48 1002.91 1003.50 1004.16 1004.64 1005.07 1004.67 1004.27 1004.14 1004.10 1003.90 1003.95 1003.64 1003.69 1003.85 1004.20 1004.72 1005.01 1004.83 1004.74 1003.46 1002.48 1001.94 1001.09 1000.42 1000.43 1000.68 1001.48
1013.25 1013.02 1012.76 1011.36 1011.62 1008.75 1007.08 1006.10 1005.67 1006.23 1003.45 1001.06 1001.00 1001.28 1002.14 1002.54 1002.34 1002.52 1003.03 1003.64 1004.11 1004.77 1004.98 1004.71 1004.21 1004.16 1003.82 1003.72 1003.87 1003.88 1004.05 1004.48 1004.84 1005.47 1005.56 1005.38 1004.75 1003.82 1002.75 1001.57 1000.72 1000.06 999.45 1000.16 1001.29
1012.40 1011.84 1012.24 1011.82 1009.08 1007.05 1007.23 1006.99 1006.60 1004.50 1001.58 1001.09 1000.76 1001.13 1001.82 1002.04 1002.35 1002.69 1003.22 1003.84 1004.36 1004.98 1004.94 1004.58 1004.06 1003.74 1003.61 1003.67 1003.72 1004.16 1005.00 1006.09 1006.50 1006.65 1006.25 1005.57 1004.59 1003.49 1001.70 1001.21 1000.60 1000.56 1000.14 1000.64 1001.59
1011.84 1010.31 1009.38 1009.28 1007.82 1007.66 1007.65 1007.30 1005.72 1002.63 1001.46 1000.39 1000.07 1000.77 1001.26 1001.42 1001.98 1002.48 1003.18 1003.84 1004.22 1004.68 1004.82 1004.83 1004.31 1003.45 1003.04 1003.30 1003.69 1004.10 1005.23 1006.48 1006.95 1007.54 1006.92 1005.82 1004.41 1002.92 1001.85 1000.80 1000.53 1001.48 1001.11 1001.62 1002.39
1011.28 1009.35 1008.48 1007.18 1007.34 1007.33 1007.81 1007.00 1004.02 1002.17 1001.43 1000.92 1000.69 1000.43 1000.52 1001.06 1002.04 1002.18 1002.77 1003.23 1003.57 1004.24 1005.16 1005.10 1004.41 1003.68 1003.80 1003.41 1003.88 1004.39 1005.25 1006.05 1007.09 1008.05 1007.60 1006.52 1004.85 1003.39 1002.68 1001.96 1001.93 1002.29 1001.94 1002.67 1002.94
1011.64 1009.64 1006.95 1005.68 1006.38 1006.96 1007.36 1005.89 1003.60 1002.10 1001.80 1001.64 1001.36 1000.86 1001.48 1002.55 1003.30 1002.95 1003.33 1003.68 1004.15 1004.67 1005.14 1005.80 1005.68 1004.82 1004.29 1004.29 1004.47 1004.99 1005.70 1006.51 1007.88 1009.33 1008.84 1007.10 1005.78 1004.37 1003.66 1003.21 1002.86 1002.89 1003.28 1003.11 1003.32
1011.20 1009.05 1005.62 1005.13 1006.04 1006.83 1006.54 1004.86 1003.85 1002.68 1002.38 1002.32 1002.24 1002.28 1002.72 1003.18 1003.81 1004.20 1004.29 1004.26 1004.92 1005.51 1005.78 1006.35 1006.74 1006.42 1005.84 1005.62 1005.70 1005.92 1006.30 1006.92 1007.86 1009.12 1009.60 1008.28 1006.37 1004.82 1004.40 1004.12 1004.32 1004.08 1003.74 1004.14 1003.78
1010.81 1008.30 1005.10 1005.21 1006.33 1006.26 1005.86 1005.28 1004.29 1002.72 1002.55 1002.63 1002.78 1003.16 1003.72 1004.26 1004.60 1004.64 1004.83 1005.31 1005.83 1006.38 1007.07 1007.85 1008.06 1007.92 1007.20 1006.44 1006.26 1006.77 1007.44 1008.08 1009.66 1009.94 1009.34 1008.59 1006.26 1004.67 1004.87 1004.76 1004.70 1004.62 1004.48 1004.27 1004.03
1011.58 1008.18 1005.08 1005.18 1005.99 1006.12 1006.06 1005.39 1004.81 1003.11 1003.21 1003.26 1003.46 1004.09 1004.78 1005.32 1005.85 1005.66 1005.65 1006.20 1006.74 1007.24 1008.34 1008.75 1009.23 1009.33 1008.24 1007.29 1007.78 1008.10 1008.37 1009.10 1009.76 1010.62 1009.85 1009.20 1007.01 1005.39 1004.89 1004.62 1004.44 1004.40 1004.31 1004.00 1004.13
1011.95 1008.52 1006.31 1005.77 1005.58 1005.97 1006.02 1006.35 1004.97 1003.86 1004.00 1004.16 1004.51 1004.96 1005.70 1006.01 1006.22 1006.62 1006.60 1006.76 1007.14 1008.07 1008.86 1009.50 1010.15 1010.40 1010.03 1009.18 1009.15 1009.06 1008.86 1008.87 1009.45 1010.03 1009.39 1008.28 1007.03 1006.38 1005.32 1004.76 1004.38 1004.04 1003.90 1003.67 1003.63
1011.82 1008.91 1008.12 1006.83 1006.56 1006.37 1006.02 1005.61 1004.75 1004.37 1004.78 1005.04 1005.25 1005.65 1006.40 1007.10 1007.31 1007.35 1007.50 1007.76 1007.84 1008.52 1009.37 1010.28 1011.06 1011.25 1010.97 1010.52 1009.95 1009.33 1008.88 1008.75 1008.58 1008.29 1008.18 1007.05 1006.10 1005.63 1005.10 1004.47 1003.96 1003.62 1003.40 1003.27 1003.18
1011.80 1010.42 1009.23 1008.54 1007.07 1006.66 1006.33 1005.96 1005.42 1005.29 1005.68 1005.97 1006.33 1006.86 1007.42 1008.12 1008.49 1008.53 1008.72 1009.13 1009.18 1009.60 1010.18 1011.39 1011.97 1012.00 1011.86 1011.17 1010.23 1008.97 1008.32 1007.62 1007.22 1006.95 1006.29 1006.08 1004.90 1004.64 1003.79 1003.41 1003.50 1003.39 1003.62 1003.54 1003.46
1011.83 1010.99 1010.26 1009.08 1008.00 1007.12 1006.45 1006.05 1006.21 1006.31 1006.46 1006.82 1007.39 1007.76 1008.18 1008.98 1009.01 1009.15 1009.27 1009.36 1009.57 1010.06 1010.85 1012.07 1012.70 1012.84 1012.06 1011.32 1010.42 1008.94 1006.88 1006.27 1005.86 1005.63 1005.44 1005.17 1004.97 1004.34 1004.48 1004.37 1004.30 1004.35 1004.49 1004.68 1004.80
Wind_Speed
17 16 16 12 11 10 10 10 10 11 11 11 12 11 12 13 15 6 9 12 11 16 2 5 6 7 6 5 5 3 1 5 9 9 9 15 6 9 5 7 5 3 9 8 6
17 16 16 15 14 11 10 10 10 10 11 11 11 11 11 12 8 12 15 18 11 11 7 8 9 9 4 5 4 6 5 9 9 11 8 12 5 8 8 3 3 7 5 3 6
18 17 16 15 14 13 11 10 9 10 10 10 10 10 10 10 5 10 11 24 14 10 5 6 12 6 8 6 7 5 9 7 12 15 7 6 7 5 7 5 4 2 3 4 3
16 18 18 16 15 14 13 10 10 9 9 10 9 10 10 4 2 3 5 26 14 8 6 5 8 5 8 9 10 8 11 9 19 16 7 4 6 4 3 5 7 4 4 5 7
14 16 17 18 16 15 13 12 11 9 9 8 8 8 5 4 11 5 10 13 8 6 10 12 9 7 7 9 10 10 10 14 18 12 7 6 6 6 6 8 8 3 5 5 7
16 15 17 17 18 16 14 11 12 10 8 7 6 7 4 6 3 13 10 8 9 8 10 12 9 10 8 10 9 10 15 14 12 12 5 6 6 4 7 8 8 6 5 4 7
17 17 16 17 17 17 17 15 15 12 10 7 6 5 5 16 6 10 12 7 8 11 12 15 13 6 6 9 8 9 8 8 10 4 9 7 8 9 10 9 9 10 8 9 10
16 17 17 18 18 18 19 20 14 11 9 7 5 4 9 8 12 9 10 11 11 16 15 9 10 3 2 8 9 7 5 5 6 7 10 8 10 10 10 11 14 10 8 7 10
15 16 17 19 19 20 19 22 15 7 8 6 4 5 9 3 9 11 13 13 15 11 7 8 6 3 7 5 6 5 5 8 10 16 16 17 8 12 12 8 6 10 8 8 7
16 16 17 18 18 18 20 20 8 3 4 7 9 4 8 7 9 9 8 10 5 6 3 3 0 3 4 1 6 8 7 8 13 14 14 16 12 9 8 7 8 8 8 7 8
18 18 17 19 18 14 9 4 1 2 5 11 10 7 11 10 7 6 9 9 7 7 7 7 4 7 12 12 13 11 12 11 9 9 6 4 8 8 9 2 6 8 10 10 10
20 19 21 19 20 13 6 6 10 3 7 18 17 17 16 10 6 8 10 7 7 7 8 6 10 11 12 13 12 13 13 12 7 8 6 7 7 7 8 6 8 10 10 10 8
19 20 20 21 22 10 9 15 11 14 4 11 17 10 6 7 5 5 13 8 7 8 8 9 10 17 17 13 12 10 6 7 5 10 9 8 9 8 4 6 9 9 9 9 11
21 21 20 23 5 5 6 11 19 11 4 7 7 10 9 5 6 11 5 7 5 9 12 9 13 17 12 11 7 6 10 12 7 5 6 4 10 7 7 13 14 17 12 10 11
22 21 20 10 8 6 6 12 11 4 3 10 9 7 9 12 3 6 9 5 7 10 5 7 7 9 9 6 12 4 8 10 6 5 2 6 3 6 7 11 13 11 19 15 10
22 21 20 6 5 13 15 14 5 0 7 11 8 9 10 10 12 10 7 4 4 6 9 12 9 6 4 10 8 7 6 7 5 2 7 6 5 5 10 11 11 11 12 14 16
25 24 10 8 6 6 9 3 1 5 4 2 8 13 14 12 10 10 12 9 6 5 9 13 14 13 14 9 8 4 3 4 5 3 6 8 11 12 11 3 5 4 13 14 13
27 31 6 10 9 11 2 2 5 1 1 9 12 16 15 13 10 15 13 9 12 11 7 5 9 15 8 9 5 8 5 4 6 4 8 8 4 6 11 11 11 7 8 10 9
26 4 4 6 12 3 2 4 3 5 8 8 6 4 6 8 5 10 13 13 7 1 1 4 4 12 11 9 2 4 7 7 4 7 4 4 10 10 6 10 5 8 9 9 7
6 5 7 8 11 3 2 5 5 5 7 6 4 5 4 6 9 8 5 4 5 3 7 3 5 6 6 8 8 2 4 6 1 3 5 4 6 2 8 9 6 8 5 5 5
2 4 2 9 4 1 4 5 7 8 4 5 7 6 6 2 9 4 0 3 7 7 8 5 2 4 6 2 4 6 6 5 3 7 7 2 6 7 8 8 7 12 14 7 3
4 3 5 6 2 4 4 1 10 2 6 2 2 3 5 6 4 4 3 6 6 5 4 2 1 3 5 11 10 6 7 1 2 6 3 4 12 11 6 5 6 7 8 9 5
5 4 3 5 3 4 4 11 12 2 6 6 5 6 6 3 3 5 6 10 8 6 4 2 2 3 7 5 7 5 8 5 5 2 4 5 5 3 6 2 3 6 9 10 5
4 4 0 2 4 5 2 7 8 8 3 3 6 5 1 3 4 2 4 3 5 6 8 5 2 5 5 7 7 7 10 10 5 3 2 9 15 13 9 5 7 8 9 12 8
3 3 5 3 3 5 6 8 10 5 6 5 2 1 5 3 7 4 1 8 1 12 5 3 2 5 8 11 14 15 15 13 16 14 14 13 19 12 10 10 9 10 10 9 12
3 4 5 7 9 4 2 5 8 7 4 5 4 9 8 3 3 6 5 4 3 2 4 3 1 4 5 12 16 20 17 19 19 20 23 20 23 12 14 14 8 6 6 6 7
3 5 2 5 8 4 3 4 9 6 1 4 7 3 4 7 6 6 5 5 6 3 3 5 1 1 3 7 13 10 16 15 16 17 13 17 7 11 8 9 8 8 11 12 12
Wind_Direction
356 356 355 353 343 332 318 308 304 302 297 298 299 304 307 310 307 236 233 227 193 224 265 306 271 212 226 235 256 275 181 248 250 261 270 296 343 308 189 142 83 77 125 151 143
348 348 353 355 355 342 329 316 307 303 297 297 299 305 315 318 289 249 231 219 196 173 214 242 261 200 206 206 248 168 175 234 251 267 274 290 16 336 359 88 120 117 316 106 151
345 347 348 349 349 352 336 320 310 303 299 301 306 313 317 313 268 242 212 214 173 165 222 256 258 207 204 223 223 233 230 237 252 261 290 321 339 332 10 344 29 69 178 285 237
346 343 344 344 344 344 347 326 310 302 299 302 311 313 310 279 168 19 352 186 164 173 210 230 264 231 197 214 238 242 235 237 265 268 273 277 303 307 286 253 292 37 357 7 348
345 342 341 339 338 337 333 338 312 299 296 299 304 314 316 223 251 146 120 131 147 179 204 214 235 237 215 213 239 234 227 228 248 259 274 247 256 273 297 278 277 325 334 339 335
335 340 337 335 333 331 326 317 316 286 277 279 295 305 232 247 195 148 155 157 172 177 207 230 242 222 246 233 222 233 227 232 242 250 250 252 253 224 274 281 281 236 231 249 282
330 332 332 331 330 328 325 317 305 277 267 260 273 271 259 243 152 172 150 185 179 196 213 227 244 259 280 263 266 263 275 254 226 225 261 243 260 242 230 238 243 232 198 207 228
328 326 326 328 328 328 327 324 310 268 258 249 253 273 252 253 230 221 179 198 211 208 233 257 248 245 353 316 324 298 328 264 267 244 240 194 250 242 235 229 235 216 204 205 225
325 322 319 324 326 327 325 317 303 260 251 238 228 205 260 266 220 219 189 206 208 219 243 268 21 359 312 290 314 297 224 269 267 237 240 207 223 223 240 245 246 193 196 228 234
320 318 315 315 319 325 324 305 323 204 216 206 261 280 266 227 195 200 230 217 200 188 241 237 16 227 297 224 224 241 254 236 247 263 229 235 212 224 244 188 185 186 202 217 216
318 315 313 313 312 323 339 325 206 197 244 203 192 230 286 211 108 187 204 217 223 164 202 230 180 226 224 226 236 261 270 275 277 293 19 228 192 210 231 229 220 215 210 216 213
315 314 313 314 308 309 298 237 245 358 282 225 231 245 267 299 260 194 183 201 207 217 190 256 224 233 253 255 241 245 259 276 278 309 335 301 267 238 231 243 244 206 223 213 211
313 313 313 312 309 288 212 226 273 300 286 279 220 215 224 207 260 221 172 205 196 223 229 201 237 225 236 246 260 274 265 272 271 310 316 332 310 285 255 267 254 250 219 214 194
313 314 315 324 300 312 232 239 241 268 301 260 172 202 193 219 254 232 256 164 231 232 226 237 240 252 264 233 221 263 284 287 254 244 258 286 284 293 257 250 249 243 230 214 201
312 312 313 310 297 274 312 316 206 162 285 134 148 131 149 174 148 185 221 169 226 248 288 276 314 334 325 296 346 239 283 250 274 264 252 270 262 252 246 279 271 238 227 216 154
309 310 319 295 189 248 292 306 28 204 242 166 135 182 145 203 244 140 187 151 205 250 272 268 278 282 260 285 302 320 6 15 6 346 273 245 242 274 257 249 279 295 231 152 130
312 306 292 289 231 324 287 329 226 236 212 299 171 159 180 193 226 155 174 186 194 194 237 257 262 245 246 252 281 279 32 344 335 313 256 244 253 238 270 263 30 11 80 111 113
316 309 235 204 229 262 302 316 252 163 205 276 139 173 190 184 206 175 180 204 204 237 273 245 255 232 236 230 235 265 195 202 251 225 257 266 264 272 313 309 34 26 89 108 112
315 301 235 226 227 256 63 243 273 309 17 16 334 274 230 155 272 197 183 200 187 153 87 3 265 331 191 282 302 253 284 203 13 326 308 248 295 275 13 28 34 42 107 128 129
314 291 264 201 191 138 166 251 284 37 38 338 295 340 78 120 355 25 58 26 75 95 140 233 325 307 353 17 332 294 269 278 72 270 267 261 262 252 13 347 6 6 80 110 138
242 281 201 139 107 179 225 256 303 111 48 351 9 351 48 120 160 150 188 58 54 24 11 42 138 295 343 215 268 319 316 285 161 151 192 239 261 163 24 19 26 14 6 13 220
313 267 195 124 142 221 252 303 277 82 111 252 272 350 49 41 13 1 48 53 64 34 358 76 45 285 266 287 284 297 287 29 145 266 279 206 246 306 107 63 40 353 335 331 342
311 274 253 119 238 236 27 325 281 354 46 9 23 59 72 69 43 355 29 107 80 41 41 348 13 332 309 301 35 48 334 343 121 84 219 239 272 313 305 129 46 340 293 286 287
286 296 345 177 248 283 269 194 254 87 124 58 18 44 337 294 144 223 348 84 123 91 99 50 277 204 220 289 322 294 291 291 210 232 254 241 276 276 282 260 242 247 242 249 239
244 286 2 328 8 343 13 320 315 138 58 66 302 240 79 19 9 331 45 355 46 152 123 113 196 301 299 305 300 287 281 270 268 264 236 267 263 266 268 260 240 227 234 232 244
306 356 344 293 303 328 270 260 262 85 48 97 36 44 56 37 293 304 351 15 268 133 76 51 288 0 286 273 267 270 262 258 254 258 264 274 275 270 252 267 296 349 30 15 5
352 326 303 292 310 310 288 79 60 59 279 49 33 15 7 36 355 336 304 255 233 220 104 120 121 307 250 329 328 307 255 257 258 255 251 263 306 23 14 38 34 13 39 40 21